Regional Weather Roundup
Issued by NWS

Home | Current Version | Previous Version | Graphics & Text | Print | Product List | Glossary On
Versions: 1 2 3 4 5 6 7 8 9 10 11 12 13 14 15 16 17 18 19 20 21 22 23 24 25 26 27 28 29 30 31 32 33 34 35 36 37 38 39 40 41 42 43 44 45 46 47 48 49 50
000
ASUS43 KLMK 252210
RWRKY
KENTUCKY REGIONAL WEATHER ROUNDUP
NATIONAL WEATHER SERVICE LOUISVILLE KY
600 PM EDT TUE APR 25 2017

NOTE "FAIR" INDICATES FEW OR NO CLOUDS BELOW 12,000 FEET
WITH NO SIGNIFICANT WEATHER AND/OR OBSTRUCTIONS TO VISIBILITY.

KYZ001>023-026-027-061>063-070>075-252300-
WESTERN AND SOUTH CENTRAL KENTUCKY

CITY           SKY/WX    TMP DP  RH WIND       PRES   REMARKS
PADUCAH        SUNNY     79  50  36 S12G21    29.60F
HENDERSON      MOSUNNY   78  57  48 S14       29.64F
OWENSBORO      SUNNY     78  58  49 S13       29.66F
HOPKINSVILLE   SUNNY     77  56  47 SE10      29.66F
BOWLING GREEN  MOSUNNY   76  57  51 SW10      29.70F
GLASGOW        MOSUNNY   75  55  48 S6        29.71S
$$

KYZ024-025-028>034-038-045-046-053-252300-
NORTH CENTRAL KENTUCKY

CITY           SKY/WX    TMP DP  RH WIND       PRES   REMARKS
LOUISVILLE/SDF MOSUNNY   77  57  50 S6        29.68F
LOUISVILLE/LOU SUNNY     76  57  51 MISG      29.68F
FORT KNOX      SUNNY     74  56  51 SE3       29.67F
$$

KYZ035>037-039>044-047>052-055>060-089>105-252300-
NORTHEAST KENTUCKY

CITY           SKY/WX    TMP DP  RH WIND       PRES   REMARKS
LEXINGTON      PTSUNNY   72  56  57 W6        29.72F
COVINGTON      MOSUNNY   74  57  55 SW6       29.69F
FRANKFORT      SUNNY     75  55  49 VRB3      29.70F
$$

KYZ054-064>069-076>088-106>120-252300-
SOUTHEAST KENTUCKY

CITY           SKY/WX    TMP DP  RH WIND       PRES   REMARKS
JACKSON        CLOUDY    71  55  56 CALM      29.74R
LONDON         CLOUDY    72  54  53 W9        29.74R
SOMERSET       MOSUNNY   70  52  52 W3        29.75F
MIDDLESBORO    CLOUDY    70  58  65 S3        29.75S
MONTICELLO     CLEAR     72  55  55 NW9       29.75F
$$





USA.gov is the U.S. government's official web portal to all federal, state and local government web resources and services.